Погода Тарко-Сале

Хотите узнать прогноз погоды Тарко-Сале? Тогда Вам сюда: Погода Тарко-Сале

Поиск расширенной информации на нашем сайте:

Полезная информация:

Новости сайта



02.01.2020
Опубликован Долгосрочный прогноз погоды по городам России и ближнего зарубежья на январь 2020 года.
Карты: Прогноз на январь и февраль 2020 года, Сравнение прогнозируемой аномалии приземной температуры воздуха на январь 2020 года по разным моделям.




Погода Тарко-Сале - сегодня

Время (UTC), дата Ветер
(°,м/с) 
Видим.   Явления Облачность Т
(°С)
Тd
(°С)
f(%) Тe
(°С)
Pmin
(гПа)
dP
(гПа)
Po
(мм)
O2
(г/м3)
Тmin Tmax R s Состояние
почвы
00 19.01.20 330 (СЗ) 10 км  [диам. изморози 3 мм]  ясно 
-24.1 -26.4 81 -27  1005.9  1.6  752  334           
03 19.01.20 290 (З) 10 км  [диам. изморози 3 мм]  ясно 
-25.5 -27.9 80 -26  1006.8  0.9  752  336  -26      64  равномерный
сухой снег
100% 
06 19.01.20 270 (З) 10 км  [диам. изморози 3 мм]  10/0 средняя, верхняя 
[Ac trans|Ci fib]
-26.5 -29 79 -30  1006.9  0.1  752  338  -27.2         
09 19.01.20 240 (ЮЗ) 10 км  [диам. изморози 3 мм]  10/6 660 м верхняя 
[Sc|Ci fib]
-23.6 -25.9 81 -27  1005.3  -1.6  751  333           
12 19.01.20 260 (З) 10 км  {снег} [диам. изморози 2 мм]  6/0 верхняя 
[Ci fib]
-24.7 -27.1 80 -30  1004.4  -0.9  751  334           
15 19.01.20 270 (З) 4000 м  слаб. снег [диам. изморози 4 мм]  10/0 средняя, верхняя 
[As op|Cs]
-23.7 -25.9 82 -27  1003.8  -0.6  750  333    -23.3  0.2     
18 19.01.20 300 (СЗ) 4000 м  слаб. снег [диам. изморози 4 мм]  10/0 средняя, верхняя 
[As op|Cs]
-23.8 -26 82 -27  1004.7  0.9  751  333           
21 19.01.20 300 (СЗ) 4000 м  слаб. снег [диам. изморози 4 мм]  10/0 средняя, верхняя 
[As op|Cs]
-25.5 -28.1 79 -31  1005.7  752  336           
00 20.01.20 300 (СЗ) 10 км  {снег} [диам. изморози 4 мм]  6/0 верхняя 
[Cs]
-27.1 -29.7 79 -31  1006.5  0.8  752  338           
03 20.01.20 280 (З) 10 км  [диам. изморози 4 мм]  ясно 
-28.2 -30.9 78 -29  1005.9  -0.6  752  340  -28.5    0.3  64  равномерный
сухой снег
100% 
06 20.01.20 140 (ЮВ) 4000 м  слаб. снег  10/10 210 м 
[Sc]
-26.9 -29.6 78 -28  1003.5  -2.5  750  337           
09 20.01.20 130 (ЮВ) 2000 м  снег [диам. изморози 3 мм]  10/8 120 м средняя 
[Frnb|As op]
-23.5 -25.8 81 -27  998.1  -5.2  746  331           
12 20.01.20 050 (СВ) 10 км  в посл. час снег [диам. изморози 3 мм]  ясно 
-24.6 -27 81 -28  1001.6  3.5  749  333           
15 20.01.20 360 (С) 10 км  [диам. изморози 4 мм]  ясно 
-28.6 -31.5 76 -32  1006.5  4.7  752  340    -23.1     
18 20.01.20 330 (СЗ) 10 км  [диам. изморози 4 мм]  ясно 
-32.1 -35.4 73 -33  1009.5  754  346           
21 20.01.20 350 (С) 10 км  [диам. изморози 4 мм]  ясно 
-35 -38.6 69 -36  1010.6  1.1  755  351           
00 21.01.20 тихо ()   10 км  [диам. изморози 4 мм]  ясно 
-35.7 -39.5 68 -36  1012.2  1.5  756  353           
03 21.01.20 150 (ЮВ) 2000 м  дым [диам. изморози 4 мм]  3/0 верхняя 
[Ci fib]
-37 -40.9 67 -38  1011.5  -0.7  756  354  -38.1      65  равномерный
сухой снег
100% 
06 21.01.20 140 (ЮВ) 4000 м  слаб. снег [диам. изморози 4 мм]  10/8 330 м средняя 
[Sc|As op]
-33.3 -36.7 71 -37  1010.5  -0.9  755  349           
09 21.01.20 140 (ЮВ) 10 км  в посл. час снег [диам. изморози 4 мм]  10/4 600 м средняя 
[Sc|Ac As]
-28.8 -31.7 76 -32  1008.9  -1.6  754  342           
12 21.01.20 140 (ЮВ) 4000 м  слаб. снег [диам. изморози 4 мм]  10/8 300 м средняя 
[Sc|As op]
-25.4 -27.8 80 -30  1007.6  -1.2  753  336           
15 21.01.20 140 (ЮВ) 4000 м  слаб. снег [диам. изморози 4 мм]  10/0 средняя, верхняя 
[As op|Cs]
-22.4 -24.6 82 -25  1005.7  -1.8  752  332    -22.4  0.3     
18 21.01.20 140 (ЮВ) 10 км  {снег} [диам. изморози 4 мм]  10/0 средняя, верхняя 
[Ac As|Cs]
-21.8 -23.8 84 -25  1003.6  -2.1  750  330           
21 21.01.20 200 (Ю) 4000 м  слаб. снег [диам. изморози 4 мм]  10/6 270 м верхняя 
[Sc|Cs]
-18.7 -20.4 86 -23  1002.2  -1.3  749  326           
00 22.01.20 200 (Ю) 4000 м  слаб. снег [диам. изморози 4 мм]  10/8 270 м средняя 
[Sc|As op]
-18.2 -19.8 87 -22  1001  -1.2  748  325           
Время (UTC), дата Ветер
(°,м/с) 
Видим.   Явления Облачность Т
(°С)
Тd
(°С)
f(%) Тe
(°С)
Pmin
(гПа)
dP
(гПа)
Po
(мм)
O2
(г/м3)
Тmin Tmax R s Состояние
почвы

Для получения пояснительной информации подведите курсор к названию столбца.

ПОГОДА Тарко-Сале - архив

Всё, что Вы хотите узнать о погоде Тарко-Сале - удобно и подробно!

Выберите нужную дату (начиная с 1 января 2019* года) и нажмите кнопку "Найти".
Будут отображены архивные сводки погоды по пункту Тарко-Сале, начиная с указанной даты.


Отображать данные в формате CSV (для использования в таблицах Excel)


Внимание! Наш архив погоды предназначен исключительно для личного некоммерческого использования в познавательных целях. Если Вам необходимы официальные справки о состоянии погоды (для производственных, юридических, коммерческих и т.п. целей), обращайтесь в органы Росгидромета.

*Примечание: данная дата относится к архиву по метеостанциям СССР (Россия, СНГ, Балтия).
Архив по метеостанциям Зарубежной Европы и Азии (кроме Китая) хранится 10 дней, по другим регионам земного шара (Китай, Африка, Америка, Австралия, Океания) - 1 день.

Тарко-Сале - район местоположения метеостанции


Название, широта, долгота, высота метеостанции:
Тарко-Сале 64.9°ш. 77.8°д. 27 м над ур. моря [Российская Федерация]

Дополнительная информация

В oтличие oт бoльшинства пoгoдных сайтoв мы публикуем пoдрoбную метеoинфoрмацию в детальнoм прoфессиoнальнoм фoрмате.

Характеристики температуры и влажнoсти вoздуха измеряются на высoте 2 м в тени вдали oт зданий и деревьев.
Скoрoсть ветра измеряется на высoте 10 м (на урoвне рoста челoвека скoрoсть ветра ниже в 1.5-2 раза). Если метеoстанция нахoдится в гoрoде или в лесу, тo скoрoсть ветра занижена на 2-4 м/с пo сравнению с oткрытым местoм. Скoрoсть ветра над акватoриями крупных рек и oзёр, а также на вершинах хoлмoв на 2-5 м/с выше, чем в oбычных услoвиях.
Атмoсфернoе давление в разных тoчках местнoсти мoжет значительнo oтличаться oт давления на метеoстанции, в зависимoсти oт услoвий рельефа (при пoдъёме на 10 м давление пoнижается примернo на 1 мм рт.ст.).